EW9544 Stamford CT US current weather conditions

sailwx.info

Wind from 208 at 6 knots gusting 10

Air temperature 13.3° C
Dewpoint 11.6° C

Last reported at 2019-Oct-20 23:05 UTC.
Time now 2019-Oct-20 23:41 UTC

Location: N 41°02' W 073°33'.
View on Google Maps.

See reports from other nearby stations

  
Tides and Currents Weather Stations Pressure Air Temp Water Temp Dewpoint Dewpoint Depression Visibility Wind Speed Wind Dir Waves Ship Positions
date/time (UTC)wind fromknots sea level pressurealtimeterstation pressurevisibilityair tempwater tempwave heightnotes
2019-Oct-20 23:05 208 6 gusting 10 13.3
2019-Oct-20 23:00 189 5 gusting 13 13.3
2019-Oct-20 22:55 208 5 gusting 13 13.3
2019-Oct-20 22:50 141 5 gusting 10 13.3
2019-Oct-20 22:45 206 6 gusting 11 13.3
2019-Oct-20 22:40 200 6 gusting 11 13.3
2019-Oct-20 22:35 199 5 gusting 10 13.3
2019-Oct-20 22:30 180 4 gusting 9 13.3
2019-Oct-20 22:25 212 2 gusting 6 13.3
2019-Oct-20 22:20 125 1 gusting 6 13.3
2019-Oct-20 22:15 153 0 gusting 6 13.3
2019-Oct-20 22:10 120 13.3
2019-Oct-20 22:05 120 0 gusting 2 13.3
2019-Oct-20 22:00 120 0 gusting 3 13.3
2019-Oct-20 21:55 125 13.3
2019-Oct-20 21:50 178 13.3
2019-Oct-20 21:45 177 0 gusting 6 13.3
2019-Oct-20 21:40 189 0 gusting 6 13.3
2019-Oct-20 21:35 121 1 gusting 5 13.3
2019-Oct-20 21:30 100 1 gusting 5 13.3
2019-Oct-20 21:25 102 2 gusting 6 13.3
2019-Oct-20 21:20 170 2 gusting 6 13.3
2019-Oct-20 21:15 146 2 gusting 6 13.3
2019-Oct-20 21:10 151 2 gusting 6 13.3
2019-Oct-20 21:05 102 2 gusting 6 13.3
2019-Oct-20 21:00 106 2 gusting 6 13.3
2019-Oct-20 20:55 111 2 gusting 6 13.3
2019-Oct-20 20:50 162 2 gusting 6 13.3
2019-Oct-20 20:45 085 2 gusting 6 13.3
2019-Oct-20 20:40 094 1 gusting 4 13.3
2019-Oct-20 20:35 124 2 gusting 5 13.3
2019-Oct-20 20:30 118 2 gusting 5 13.3
2019-Oct-20 20:25 084 2 gusting 6 13.3
2019-Oct-20 20:20 095 1 gusting 6 13.3
2019-Oct-20 20:15 100 0 gusting 5 13.3
2019-Oct-20 20:10 088 13.3
2019-Oct-20 20:05 068 0 gusting 5 13.3
2019-Oct-20 20:00 110 0 gusting 5 13.3
2019-Oct-20 19:55 091 1 gusting 4 13.3
2019-Oct-20 19:50 108 1 gusting 3 13.3
2019-Oct-20 19:45 097 0 gusting 3 13.3
2019-Oct-20 19:40 120 13.3
2019-Oct-20 19:35 100 0 gusting 5 13.3
2019-Oct-20 19:30 093 0 gusting 5 13.3
2019-Oct-20 19:25 111 0 gusting 5 13.3
2019-Oct-20 19:20 133 1 gusting 5 13.3
2019-Oct-20 19:15 072 1 gusting 5 13.3
2019-Oct-20 19:10 103 0 gusting 3 13.9
2019-Oct-20 19:05 103 13.9
2019-Oct-20 19:00 103 0 gusting 5 13.9
2019-Oct-20 18:55 160 1 gusting 5 13.9
2019-Oct-20 18:50 120 0 gusting 3 13.9
2019-Oct-20 18:45 145 1 gusting 6 13.9
2019-Oct-20 18:40 056 2 gusting 6 13.9
2019-Oct-20 18:35 104 1 gusting 6 13.9
2019-Oct-20 18:30 158 1 gusting 5 13.9
2019-Oct-20 18:25 122 0 gusting 5 13.9
2019-Oct-20 18:20 125 13.9
2019-Oct-20 18:15 114 13.9
2019-Oct-20 18:10 137 13.9
2019-Oct-20 18:05 124 13.9
2019-Oct-20 18:00 159 0 gusting 6 13.9
2019-Oct-20 17:55 112 0 gusting 6 13.9
2019-Oct-20 17:50 151 0 gusting 5 13.9
2019-Oct-20 17:45 116 0 gusting 5 13.9
2019-Oct-20 17:40 101 1 gusting 6 13.9
2019-Oct-20 17:35 184 1 gusting 6 13.9
2019-Oct-20 17:30 080 13.9
2019-Oct-20 17:25 108 0 gusting 6 13.9
2019-Oct-20 17:20 162 1 gusting 6 13.9
2019-Oct-20 17:15 122 0 gusting 6 13.9
2019-Oct-20 17:10 149 1 gusting 6 13.9
2019-Oct-20 17:05 163 1 gusting 6 13.9
2019-Oct-20 17:00 137 0 gusting 6 13.9
2019-Oct-20 16:55 114 0 gusting 6 13.9
2019-Oct-20 16:50 134 2 gusting 7 13.9
2019-Oct-20 16:45 114 2 gusting 7 13.3
2019-Oct-20 16:40 058 1 gusting 8 13.9
2019-Oct-20 16:35 108 1 gusting 8 13.3
2019-Oct-20 16:30 170 0 gusting 6 13.3
2019-Oct-20 16:25 213 0 gusting 6 13.3
2019-Oct-20 16:20 127 0 gusting 8 13.3
2019-Oct-20 16:15 158 1 gusting 8 13.3
2019-Oct-20 16:10 141 1 gusting 7 13.3
2019-Oct-20 16:05 096 0 gusting 8 13.3
2019-Oct-20 16:00 197 0 gusting 8 13.3
2019-Oct-20 15:55 083 13.3
2019-Oct-20 15:50 220 0 gusting 7 12.8
2019-Oct-20 15:45 149 0 gusting 7 12.8
2019-Oct-20 15:40 100 0 gusting 6 12.8
2019-Oct-20 15:35 184 0 gusting 5 12.2
2019-Oct-20 15:30 189 0 gusting 4 12.2
2019-Oct-20 15:25 170 0 gusting 5 12.2
2019-Oct-20 15:15 078 0 gusting 6 12.2
2019-Oct-20 15:10 112 12.2
2019-Oct-20 15:05 191 12.2
2019-Oct-20 15:00 195 11.7
2019-Oct-20 14:55 165 11.7
2019-Oct-20 14:50 149 11.7
2019-Oct-20 14:45 145 0 gusting 6 11.7
2019-Oct-20 14:40 112 0 gusting 6 11.7
2019-Oct-20 14:35 135 0 gusting 6 11.7
2019-Oct-20 14:30 158 11.7
2019-Oct-20 14:25 122 11.7
2019-Oct-20 14:20 118 11.1
2019-Oct-20 14:15 077 0 gusting 3 11.1
2019-Oct-20 14:10 104 0 gusting 3 11.1
2019-Oct-20 14:05 147 11.1
2019-Oct-20 14:00 134 11.1
2019-Oct-20 13:55 114 11.1
2019-Oct-20 13:50 114 11.1
2019-Oct-20 13:45 157 11.1
2019-Oct-20 13:40 127 10.6
2019-Oct-20 13:35 127 10.6
2019-Oct-20 13:30 354 10.6
2019-Oct-20 13:25 354 10.6
2019-Oct-20 13:20 098 10.6
2019-Oct-20 13:15 109 10.6
2019-Oct-20 13:10 089 10.0
2019-Oct-20 13:05 120 10.0
2019-Oct-20 13:00 081 0 gusting 6 10.0
2019-Oct-20 12:55 118 0 gusting 6 10.0
2019-Oct-20 12:50 081 9.4
2019-Oct-20 12:45 110 9.4
2019-Oct-20 12:40 072 8.3
2019-Oct-20 12:35 058 8.3
2019-Oct-20 12:30 082 8.3
2019-Oct-20 12:25 081 7.8
2019-Oct-20 12:20 075 7.8
2019-Oct-20 12:15 075 7.8
2019-Oct-20 12:10 075 7.2
2019-Oct-20 12:05 075 7.2
2019-Oct-20 12:00 075 7.2
2019-Oct-20 11:55 075 7.2
2019-Oct-20 11:50 075 7.2
2019-Oct-20 11:45 075 6.7
2019-Oct-20 11:40 075 6.7
2019-Oct-20 11:35 075 6.7
2019-Oct-20 11:30 075 6.7
2019-Oct-20 11:25 075 6.7
2019-Oct-20 11:20 075 6.7
2019-Oct-20 11:15 075 6.7
2019-Oct-20 11:10 075 6.7
2019-Oct-20 11:05 075 6.7
2019-Oct-20 11:00 075 6.7
2019-Oct-20 10:55 075 6.7
2019-Oct-20 10:50 075 6.7
2019-Oct-20 10:45 075 6.1
2019-Oct-20 10:40 075 6.1
2019-Oct-20 10:35 075 6.1
2019-Oct-20 10:30 075 6.1
2019-Oct-20 10:25 075 6.1
2019-Oct-20 10:20 075 6.1
2019-Oct-20 10:15 075 6.1
2019-Oct-20 10:10 075 6.1
2019-Oct-20 10:05 075 6.1
2019-Oct-20 10:00 075 6.7
2019-Oct-20 09:55 075 6.7
2019-Oct-20 09:50 075 6.7
2019-Oct-20 09:45 075 6.7
2019-Oct-20 09:40 075 6.7
2019-Oct-20 09:35 075 6.7
2019-Oct-20 09:30 075 6.7
2019-Oct-20 09:25 075 6.7
2019-Oct-20 09:20 075 6.7
2019-Oct-20 09:15 075 6.7
2019-Oct-20 09:10 075 6.7
2019-Oct-20 09:05 075 6.7
2019-Oct-20 09:00 075 6.7
2019-Oct-20 08:55 075 6.7
2019-Oct-20 08:50 075 6.7
2019-Oct-20 08:45 075 6.7
2019-Oct-20 08:40 075 6.7
2019-Oct-20 08:35 075 6.7
2019-Oct-20 08:30 075 6.7
2019-Oct-20 08:24 075 6.7
2019-Oct-20 08:19 075 6.7
2019-Oct-20 08:14 075 6.7
2019-Oct-20 08:09 075 6.7
2019-Oct-20 08:04 089 6.7
2019-Oct-20 07:59 027 6.7
2019-Oct-20 07:54 027 6.7
2019-Oct-20 07:49 027 6.7
2019-Oct-20 07:44 028 6.7
2019-Oct-20 07:39 027 6.7
2019-Oct-20 07:34 027 6.7
2019-Oct-20 07:29 027 6.7
2019-Oct-20 07:24 027 7.2
2019-Oct-20 07:19 027 6.7
2019-Oct-20 07:14 028 6.7
2019-Oct-20 07:09 027 6.7
2019-Oct-20 07:04 027 6.7
2019-Oct-20 06:59 027 6.7
2019-Oct-20 06:54 027 7.2
2019-Oct-20 06:49 027 7.2
2019-Oct-20 06:44 027 7.2
2019-Oct-20 06:39 027 7.2
2019-Oct-20 06:34 027 7.2
2019-Oct-20 06:29 027 7.2
2019-Oct-20 06:24 027 7.2
2019-Oct-20 06:19 027 7.2
2019-Oct-20 06:14 027 7.2
2019-Oct-20 06:09 027 7.2
2019-Oct-20 06:04 027 7.2
2019-Oct-20 05:59 027 7.2
2019-Oct-20 05:54 027 7.2
2019-Oct-20 05:49 027 7.2
2019-Oct-20 05:44 027 7.2
2019-Oct-20 05:39 027 7.2
2019-Oct-20 05:34 027 7.2
2019-Oct-20 05:29 027 7.2
2019-Oct-20 05:24 027 7.2
2019-Oct-20 05:19 028 7.2
2019-Oct-20 05:14 027 7.2
2019-Oct-20 05:09 027 7.2
2019-Oct-20 05:04 027 7.2
2019-Oct-20 04:59 027 7.2
2019-Oct-20 04:54 027 7.2
2019-Oct-20 04:49 027 7.2
2019-Oct-20 04:44 027 7.2
2019-Oct-20 04:39 027 7.2
2019-Oct-20 04:34 027 7.8
2019-Oct-20 04:29 027 7.8
2019-Oct-20 04:24 027 7.8
2019-Oct-20 04:19 028 7.8
2019-Oct-20 04:14 028 7.8
2019-Oct-20 04:09 027 7.8
2019-Oct-20 04:04 027 7.8
2019-Oct-20 03:59 027 8.3
2019-Oct-20 03:54 027 8.3
2019-Oct-20 03:49 027 8.3
2019-Oct-20 03:44 027 8.3
2019-Oct-20 03:39 004 8.3
2019-Oct-20 03:34 004 8.3
2019-Oct-20 03:29 004 8.3
2019-Oct-20 03:24 004 8.3
2019-Oct-20 03:19 004 8.3
2019-Oct-20 03:14 004 8.3
2019-Oct-20 03:09 004 8.3
2019-Oct-20 03:04 004 8.3
2019-Oct-20 02:59 004 8.3
2019-Oct-20 02:54 004 8.9
2019-Oct-20 02:49 359 8.9
2019-Oct-20 02:44 319 8.9
2019-Oct-20 02:39 318 9.4
2019-Oct-20 02:34 319 9.4
2019-Oct-20 02:29 318 9.4
2019-Oct-20 02:24 318 9.4
2019-Oct-20 02:19 319 10.0
2019-Oct-20 02:14 308 10.0
2019-Oct-20 02:09 307 10.6
2019-Oct-20 02:04 305 10.6
2019-Oct-20 01:59 283 11.1
2019-Oct-20 01:54 283 11.7
2019-Oct-20 01:49 283 11.7
2019-Oct-20 01:44 282 12.2
2019-Oct-20 01:39 274 12.2
2019-Oct-20 01:34 271 12.2
2019-Oct-20 01:29 271 12.8
2019-Oct-20 01:24 271 12.8
2019-Oct-20 01:19 255 0 gusting 5 12.8
2019-Oct-20 01:14 265 0 gusting 6 12.8
2019-Oct-20 01:09 235 12.8
2019-Oct-20 01:04 262 12.8
2019-Oct-20 00:59 272 12.8
2019-Oct-20 00:54 273 12.8
2019-Oct-20 00:49 273 12.8
2019-Oct-20 00:44 291 12.8
2019-Oct-20 00:39 285 12.8
2019-Oct-20 00:34 268 12.8
2019-Oct-20 00:29 271 12.8
2019-Oct-20 00:24 266 12.8
2019-Oct-20 00:19 308 12.8
2019-Oct-20 00:14 308 12.8
2019-Oct-20 00:09 307 12.8
2019-Oct-20 00:04 314 12.8
2019-Oct-19 23:59 301 12.8
2019-Oct-19 23:54 303 12.8
2019-Oct-19 23:49 298 12.8
2019-Oct-19 23:44 294 0 gusting 6 13.3
2019-Oct-19 23:39 294 0 gusting 6 13.3
2019-Oct-19 23:34 241 0 gusting 7 13.3
2019-Oct-19 23:29 266 2 gusting 9 13.3
2019-Oct-19 23:24 242 2 gusting 9 13.3
2019-Oct-19 23:19 258 4 gusting 10 13.3
2019-Oct-19 23:14 258 6 gusting 12 13.9
2019-Oct-19 23:09 271 3 gusting 12 13.9
2019-Oct-19 23:04 244 1 gusting 9 13.9
2019-Oct-19 22:59 270 2 gusting 7 13.9
2019-Oct-19 22:54 279 4 gusting 8 13.9
2019-Oct-19 22:49 266 5 gusting 9 13.9
2019-Oct-19 22:44 241 2 gusting 9 13.9
2019-Oct-19 22:39 268 13.9
2019-Oct-19 22:34 314 13.3
2019-Oct-19 22:29 314 13.3
2019-Oct-19 22:24 314 13.3
2019-Oct-19 22:19 314 13.3
2019-Oct-19 22:14 314 13.9
2019-Oct-19 22:09 314 13.9
2019-Oct-19 22:04 314 13.9
2019-Oct-19 21:59 320 13.9
2019-Oct-19 21:54 320 14.4
2019-Oct-19 21:49 320 14.4
2019-Oct-19 21:44 297 14.4
2019-Oct-19 21:39 326 14.4
2019-Oct-19 21:34 261 14.4
2019-Oct-19 21:29 242 0 gusting 6 14.4
2019-Oct-19 21:24 244 0 gusting 5 14.4
2019-Oct-19 21:19 253 15.0
2019-Oct-19 21:14 258 15.0
2019-Oct-19 21:09 279 1 gusting 6 15.0
2019-Oct-19 21:04 257 2 gusting 6 15.0
2019-Oct-19 20:59 254 1 gusting 6 15.0
2019-Oct-19 20:54 275 0 gusting 6 15.0
2019-Oct-19 20:49 287 1 gusting 6 15.0
2019-Oct-19 20:44 251 1 gusting 6 15.0
2019-Oct-19 20:39 272 1 gusting 6 15.0
2019-Oct-19 20:34 273 2 gusting 7 14.4
2019-Oct-19 20:29 238 1 gusting 7 15.0
2019-Oct-19 20:24 267 0 gusting 6 14.4
2019-Oct-19 20:19 269 0 gusting 8 14.4
2019-Oct-19 20:14 274 0 gusting 8 14.4
2019-Oct-19 20:09 286 0 gusting 6 14.4
2019-Oct-19 20:04 266 0 gusting 7 14.4
2019-Oct-19 19:59 278 1 gusting 7 14.4
2019-Oct-19 19:54 257 1 gusting 9 14.4
2019-Oct-19 19:49 257 1 gusting 9 14.4
2019-Oct-19 19:44 262 2 gusting 9 14.4
2019-Oct-19 19:39 261 2 gusting 7 14.4
2019-Oct-19 19:34 265 2 gusting 9 14.4
2019-Oct-19 19:29 264 2 gusting 9 14.4
2019-Oct-19 19:24 224 1 gusting 8 14.4
2019-Oct-19 19:19 247 1 gusting 8 14.4
2019-Oct-19 19:14 266 1 gusting 8 13.9
2019-Oct-19 19:09 264 2 gusting 8 13.9
2019-Oct-19 19:04 270 3 gusting 8 13.9
2019-Oct-19 18:59 252 5 gusting 11 13.9
2019-Oct-19 18:54 264 4 gusting 11 13.9
2019-Oct-19 18:49 254 3 gusting 8 13.9
2019-Oct-19 18:44 261 2 gusting 8 13.9
2019-Oct-19 18:39 245 1 gusting 8 13.9
2019-Oct-19 18:34 270 2 gusting 8 13.9
2019-Oct-19 18:29 247 1 gusting 8 13.9
2019-Oct-19 18:24 272 1 gusting 8 13.3
2019-Oct-19 18:19 258 4 gusting 12 13.3
2019-Oct-19 18:14 273 4 gusting 12 13.3
2019-Oct-19 18:09 255 3 gusting 11 13.3
2019-Oct-19 18:04 254 1 gusting 10 13.9
2019-Oct-19 17:59 269 1 gusting 9 13.3
2019-Oct-19 17:54 287 2 gusting 8 13.3
2019-Oct-19 17:49 278 2 gusting 9 13.3
2019-Oct-19 17:44 281 1 gusting 9 12.8
2019-Oct-19 17:39 267 1 gusting 9 12.8
2019-Oct-19 17:34 290 0 gusting 9 12.8
2019-Oct-19 17:29 266 1 gusting 9 12.8
2019-Oct-19 17:24 276 2 gusting 9 13.3
2019-Oct-19 17:19 264 1 gusting 9 12.8
2019-Oct-19 17:14 248 1 gusting 8 12.8
2019-Oct-19 17:09 285 4 gusting 11 12.8
2019-Oct-19 17:04 249 2 gusting 11 12.8
2019-Oct-19 16:59 258 1 gusting 9 12.8
2019-Oct-19 16:54 264 3 gusting 10 12.2
2019-Oct-19 16:49 239 4 gusting 10 12.2
2019-Oct-19 16:44 289 2 gusting 10 12.2
2019-Oct-19 16:39 278 2 gusting 9 12.2
2019-Oct-19 16:34 260 3 gusting 9 12.8
2019-Oct-19 16:29 245 3 gusting 9 12.8
2019-Oct-19 16:24 220 2 gusting 9 12.2
2019-Oct-19 16:19 290 1 gusting 9 12.2
2019-Oct-19 16:14 248 1 gusting 9 11.7
2019-Oct-19 16:09 274 1 gusting 9 12.2
2019-Oct-19 16:04 266 1 gusting 9 12.2
2019-Oct-19 15:59 264 0 gusting 9 12.2
2019-Oct-19 15:54 266 0 gusting 8 12.2
2019-Oct-19 15:49 269 0 gusting 8 11.7
2019-Oct-19 15:44 263 1 gusting 7 12.2
2019-Oct-19 15:39 264 2 gusting 8 12.2
2019-Oct-19 15:34 263 1 gusting 8 12.2
2019-Oct-19 15:29 246 0 gusting 6 12.8
2019-Oct-19 15:24 224 12.8
2019-Oct-19 15:19 014 12.8
2019-Oct-19 15:14 021 0 gusting 5 12.8
2019-Oct-19 15:09 004 0 gusting 6 12.8
2019-Oct-19 15:04 289 12.2
2019-Oct-19 14:59 004 12.2
2019-Oct-19 14:54 301 12.2
2019-Oct-19 14:49 023 12.2
2019-Oct-19 14:44 170 12.2
2019-Oct-19 14:39 257 0 gusting 4 12.2
2019-Oct-19 14:34 027 12.2
2019-Oct-19 14:29 014 11.7
2019-Oct-19 14:24 068 11.7
2019-Oct-19 14:19 033 11.1
2019-Oct-19 14:14 316 10.6
2019-Oct-19 14:09 298 10.0
2019-Oct-19 14:04 288 10.6
2019-Oct-19 13:59 335 10.6
2019-Oct-19 13:54 359 10.6
2019-Oct-19 13:49 333 10.6
2019-Oct-19 13:44 301 10.0
2019-Oct-19 13:39 288 10.0
2019-Oct-19 13:34 004 10.0
2019-Oct-19 13:29 264 9.4
2019-Oct-19 13:24 309 9.4
2019-Oct-19 13:19 284 9.4
2019-Oct-19 13:14 018 9.4
2019-Oct-19 13:09 021 8.9
2019-Oct-19 13:04 015 8.3
2019-Oct-19 12:59 027 8.3
2019-Oct-19 12:54 014 8.3
2019-Oct-19 12:49 020 7.8
2019-Oct-19 12:44 021 7.8
2019-Oct-19 12:39 021 0 gusting 3 7.2
2019-Oct-19 12:34 004 6.7
2019-Oct-19 12:29 018 6.7
2019-Oct-19 12:24 027 6.1
2019-Oct-19 12:19 027 5.6
2019-Oct-19 12:14 029 5.0
2019-Oct-19 12:09 014 4.4
2019-Oct-19 12:04 014 4.4
2019-Oct-19 11:59 014 3.9
2019-Oct-19 11:54 014 3.9
2019-Oct-19 11:49 014 3.9
2019-Oct-19 11:44 014 3.9
2019-Oct-19 11:39 014 3.3
2019-Oct-19 11:34 014 3.3
2019-Oct-19 11:29 014 3.3
2019-Oct-19 11:24 014 3.3
2019-Oct-19 11:19 014 3.3
2019-Oct-19 11:14 014 3.3
2019-Oct-19 11:09 014 3.3
2019-Oct-19 11:04 014 3.3
2019-Oct-19 10:59 014 3.3
2019-Oct-19 10:54 014 3.3
2019-Oct-19 10:49 014 3.3
2019-Oct-19 10:44 014 3.3
2019-Oct-19 10:39 014 3.3
2019-Oct-19 10:34 014 3.3
2019-Oct-19 10:29 014 3.3
2019-Oct-19 10:24 014 3.3
2019-Oct-19 10:19 015 3.3
2019-Oct-19 10:14 014 3.3
2019-Oct-19 10:09 014 3.3
2019-Oct-19 10:04 014 3.3
2019-Oct-19 09:59 014 3.3
2019-Oct-19 09:54 014 3.3
2019-Oct-19 09:49 014 3.3
2019-Oct-19 09:44 014 3.3
2019-Oct-19 09:39 014 3.3
2019-Oct-19 09:34 014 3.3
2019-Oct-19 09:29 014 3.3
2019-Oct-19 09:24 014 3.3
2019-Oct-19 09:19 014 3.3
2019-Oct-19 09:14 014 3.3
2019-Oct-19 09:09 014 3.3
2019-Oct-19 09:04 014 3.9
2019-Oct-19 08:59 014 3.9
2019-Oct-19 08:54 014 3.9
2019-Oct-19 08:49 014 3.9
2019-Oct-19 08:44 014 4.4
2019-Oct-19 08:39 014 4.4
2019-Oct-19 08:34 014 4.4
2019-Oct-19 08:29 014 4.4
2019-Oct-19 08:24 014 4.4
2019-Oct-19 08:19 014 4.4
2019-Oct-19 08:14 014 4.4
2019-Oct-19 08:09 014 4.4
2019-Oct-19 08:04 014 4.4
2019-Oct-19 07:59 014 4.4
2019-Oct-19 07:54 014 4.4
2019-Oct-19 07:49 014 4.4
2019-Oct-19 07:44 014 4.4
2019-Oct-19 07:39 014 4.4
2019-Oct-19 07:34 014 4.4
2019-Oct-19 07:29 014 5.0
2019-Oct-19 07:24 014 5.0
2019-Oct-19 07:19 014 5.0
2019-Oct-19 07:14 014 5.0
2019-Oct-19 07:09 014 5.0
2019-Oct-19 07:04 014 5.0
2019-Oct-19 06:59 014 5.0
2019-Oct-19 06:54 014 5.0
2019-Oct-19 06:49 014 5.0
2019-Oct-19 06:44 014 5.0
2019-Oct-19 06:39 014 5.6
2019-Oct-19 06:34 014 5.6
2019-Oct-19 06:29 014 5.6
2019-Oct-19 06:24 014 5.6
2019-Oct-19 06:19 014 5.6
2019-Oct-19 06:13 014 5.6
2019-Oct-19 06:08 014 5.6
2019-Oct-19 06:04 014 5.6
2019-Oct-19 05:58 014 5.6
2019-Oct-19 05:53 014 5.6
2019-Oct-19 05:48 014 5.6
2019-Oct-19 05:43 014 6.1
2019-Oct-19 05:38 014 6.1
2019-Oct-19 05:33 014 6.1
2019-Oct-19 05:28 014 6.1
2019-Oct-19 05:23 014 6.1
2019-Oct-19 05:18 014 6.1
2019-Oct-19 05:13 014 6.7
2019-Oct-19 05:08 014 6.7
2019-Oct-19 05:03 014 6.7
2019-Oct-19 04:58 014 6.7
2019-Oct-19 04:53 014 6.7
2019-Oct-19 04:48 014 6.7
2019-Oct-19 04:43 004 6.7
2019-Oct-19 04:38 004 6.7
2019-Oct-19 04:33 004 6.7
2019-Oct-19 04:28 004 6.7
2019-Oct-19 04:23 004 6.7
2019-Oct-19 04:18 004 6.7
2019-Oct-19 04:13 008 6.7
2019-Oct-19 04:08 004 7.2
2019-Oct-19 04:03 004 7.2
2019-Oct-19 03:58 004 7.2
2019-Oct-19 03:53 004 7.2
2019-Oct-19 03:48 004 7.2
2019-Oct-19 03:43 008 7.2
2019-Oct-19 03:38 004 7.2
2019-Oct-19 03:33 004 7.2
2019-Oct-19 03:28 004 7.2
2019-Oct-19 03:23 008 7.8
2019-Oct-19 03:18 004 7.8
2019-Oct-19 03:13 004 7.8
2019-Oct-19 03:08 320 7.8
2019-Oct-19 03:03 320 7.8
2019-Oct-19 02:58 320 7.8
2019-Oct-19 02:53 318 7.8
2019-Oct-19 02:48 317 7.8
2019-Oct-19 02:43 317 7.8
2019-Oct-19 02:38 318 7.8
2019-Oct-19 02:33 332 7.8
2019-Oct-19 02:28 332 7.8
2019-Oct-19 02:23 332 7.8
2019-Oct-19 02:18 332 8.3
2019-Oct-19 02:13 332 8.3
2019-Oct-19 02:08 328 8.3
2019-Oct-19 02:03 328 8.3
2019-Oct-19 01:58 021 8.3
2019-Oct-19 01:53 021 8.3
2019-Oct-19 01:48 021 0 gusting 3 8.3
2019-Oct-19 01:43 037 8.9
2019-Oct-19 01:38 025 8.9
2019-Oct-19 01:33 025 0 gusting 2 8.9
2019-Oct-19 01:28 025 0 gusting 2 8.9
2019-Oct-19 01:23 004 8.9
2019-Oct-19 01:18 354 8.9
2019-Oct-19 01:13 004 8.9
2019-Oct-19 01:08 004 9.4
2019-Oct-19 01:03 004 9.4
2019-Oct-19 00:58 004 9.4
2019-Oct-19 00:53 093 9.4
2019-Oct-19 00:48 093 9.4
2019-Oct-19 00:43 036 10.0
2019-Oct-19 00:38 359 10.0
2019-Oct-19 00:33 023 10.0
2019-Oct-19 00:28 032 10.0
2019-Oct-19 00:23 015 0 gusting 6 10.6
2019-Oct-19 00:18 359 10.6
2019-Oct-19 00:13 043 10.6
2019-Oct-19 00:08 049 10.6
2019-Oct-19 00:03 037 10.6
2019-Oct-18 23:58 036 10.6
2019-Oct-18 23:53 043 11.1
2019-Oct-18 23:48 050 11.1
2019-Oct-18 23:43 018 11.1
2019-Oct-18 23:38 014 11.1
2019-Oct-18 23:33 056 0 gusting 8 11.1
2019-Oct-18 23:28 031 0 gusting 8 11.1
2019-Oct-18 23:23 041 0 gusting 7 11.1
2019-Oct-18 23:18 022 0 gusting 7 11.1
2019-Oct-18 23:13 044 0 gusting 4 11.1
2019-Oct-18 23:08 045 0 gusting 4 11.1
2019-Oct-18 23:03 037 0 gusting 4 11.1